Flag for U.S.A. Weather past 2 weeks in Madison, Wisconsin, U.S.A.

Now
10 °F

Sunny.


Feels Like: 0 °F
Forecast: -5 / 14 °F
Wind: 6 mph from West

Location: Dane County Regional-Truax Field

Current Time: Feb 27, 2015 at 11:18:12 AM

Latest Report: Feb 27, 2015 at 10:53 AM


Visibility: 10 mi

Pressure: 30.64 "Hg

Humidity: 43%

Dew point: -8 °F

Location of MadisonLocation

Historic Weather in Madison — Graph

°F

Madison temperature yesterday

Maximum temperature yesterday: 13 °F (at 12:53 AM)
Minimum temperature yesterday: 0 °F (at 6:53 AM)
Average temperature yesterday: 7 °F

Past Weeks' High & Low Weather Summary

 TemperatureHumidityPressure
High35 °F (Feb 24, 3:53 PM)84% (Feb 17, 2:53 AM)30.78 "Hg (Feb 17, 2:53 AM)
Low-12 °F (Feb 23, 5:53 AM)34% (Feb 24, 6:53 PM)29.64 "Hg (Feb 24, 3:53 PM)
Average9 °F59%30.23 "Hg
* Reported Feb 12 9:53 AM — Feb 27 9:53 AM, Madison, Weather by CustomWeather, © 2015

Note: Actual official high and low records may vary slightly from our data, if they occured in-between our weather recording intervals... More about our weather records

Advertising

Madison weather history for previous 24 hours

 ConditionsComfort  
Time TempWeatherWind HumidityBarometerVisibility
9:53 AM
Fri, Feb 27
7 °FSunny.3 mph52%30.63 "Hg10 mi
8:53 AM3 °FSunny.5 mph60%30.62 "Hg10 mi
7:53 AM0 °FSunny.No wind65%30.60 "Hg10 mi
6:53 AM-4 °FSunny.No wind71%30.58 "Hg10 mi
5:53 AM-3 °FClear.3 mph68%30.56 "Hg10 mi
4:53 AM-3 °FClear.3 mphN/A30.54 "Hg10 mi
3:53 AM-2 °FClear.5 mphN/A30.52 "Hg10 mi
2:53 AM-2 °FClear.5 mphN/A30.52 "Hg10 mi
1:53 AM-1 °FClear.No windN/A30.51 "Hg10 mi
12:53 AM-2 °FClear.3 mph72%30.50 "Hg10 mi
11:53 PM
Thu, Feb 26
0 °FClear.3 mph65%30.50 "Hg10 mi
10:53 PM2 °FClear.5 mph63%30.49 "Hg10 mi
9:53 PM2 °FClear.5 mph65%30.49 "Hg10 mi
8:53 PM2 °FClear.3 mph63%30.47 "Hg10 mi
7:53 PM4 °FClear.3 mph57%30.45 "Hg10 mi
6:53 PM7 °FClear.5 mph52%30.43 "Hg10 mi
5:53 PM10 °FPassing clouds.6 mph48%30.41 "Hg10 mi
4:53 PM12 °FPartly sunny.6 mph44%30.38 "Hg10 mi
3:53 PM13 °FScattered clouds.12 mph42%30.37 "Hg10 mi
2:53 PM13 °FPartly sunny.12 mph44%30.36 "Hg10 mi
1:53 PM12 °FPartly sunny.10 mph46%30.35 "Hg10 mi
12:53 PM11 °FScattered clouds.15 mph48%30.36 "Hg10 mi
11:53 AM10 °FPassing clouds.12 mph50%30.37 "Hg10 mi
Weather by CustomWeather, © 2015

See weather overviewHow to use our weather pages